Tracking 21612 objects as of 20-Oct-2020
HD Live streaming from Space Station
objects crossing your sky now

COSMOS 2363 (GLONASS)

Track COSMOS 2363 (GLONASS) now!
COSMOS 2363 (GLONASS) is classified as:


NORAD ID: 25594
Int'l Code: 1998-077B
Perigee: 19,078.0 km
Apogee: 19,195.8 km
Inclination: 63.4 °
Period: 675.7 minutes
Semi major axis: 25507 km
RCS: 3.981 m2 (large)
Launch date: December 30, 1998
Source: Commonwealth of Independent States (former USSR) (CIS)
Launch site: TYURATAM MISSILE AND SPACE COMPLEX (TTMTR)
aabbcc
Your satellite tracking list
Your tracking list is empty




NASA's NSSDC Master Catalog

Two Line Element Set (TLE):
1 25594U 98077B   20291.48452145 +.00000075 +00000-0 +00000-0 0  9995
2 25594 063.3518 133.3667 0023074 043.3559 134.3684 02.13103713169597
Source of the keplerian elements: AFSPC